Regional Weather Roundup
Issued by NWS

Home | Current Version | Previous Version | Graphics & Text | Print | Product List | Glossary On
Versions: 1 2 3 4 5 6 7 8 9 10 11 12 13 14 15 16 17 18 19 20 21 22 23 24 25 26 27 28 29 30 31 32 33 34 35 36 37 38 39 40 41 42 43 44 45 46 47 48 49 50
000
ASUS44 KMEG 020510
RWRTN
TENNESSEE HOURLY STATE WEATHER ROUNDUP
NATIONAL WEATHER SERVICE MEMPHIS TN
1200 AM CDT TUE JUN 02 2015

TNZ002-004-019-021-049-052-054-088>092-020600-
WEST TENNESSEE

CITY           SKY/WX    TMP DP  RH WIND       PRES   REMARKS
MEMPHIS INTL   PTCLDY    65  59  81 N7        30.08F
NWS MEMPHIS      N/A     61 N/A N/A MISG        N/A
JACKSON        CLOUDY    65  60  84 NE6       30.08F
DYERSBURG      CLOUDY    63  48  59 NE7       30.10S
PARIS          CLOUDY    59  57  94 NE8       30.10S
LEXINGTON      CLOUDY    63  61  94 NE7       30.07F
$$

TNZ008-025-027-028-033-062-065-066-020600-
NORTH MIDDLE TENNESSEE

CITY           SKY/WX    TMP DP  RH WIND       PRES   REMARKS
NASHVILLE      CLOUDY    63  61  93 N5        30.09F
CLARKSVILLE    CLOUDY    61  58  90 N6        30.10F
SMYRNA         CLOUDY    63  62  96 CALM      30.09F
COOKEVILLE     CLOUDY    64  64 100 N3        30.06F
CROSSVILLE     CLOUDY    65  62  90 NE3       30.09F
$$

TNZ061-075-076-078-094-096-097-020600-
SOUTH MIDDLE TENNESSEE

CITY           SKY/WX    TMP DP  RH WIND       PRES   REMARKS
FAYETTEVILLE   CLOUDY   N/A N/A N/A MISG      30.08S
TULLAHOMA      CLOUDY    63  63 100 NW3       30.09S
WINCHESTER     CLOUDY    66  64  94 CALM      30.08S
MCMINNVILLE    CLOUDY    66  66 100 W3        30.07F
COLUMBIA       CLOUDY    64  63  94 N5        30.07F
SHELBYVILLE    CLOUDY    64  64 100 N7        30.09S
$$

TNZ017-018-042-046-047-020600-
NORTHEAST TENNESSEE

CITY           SKY/WX    TMP DP  RH WIND       PRES   REMARKS
TRI CITIES     CLOUDY    63  63 100 CALM      30.07F
ELIZABETHTON   PTCLDY    61  61 100 CALM      30.07F
$$

TNZ012-013-036-069-073-074-020600-
CENTRAL EAST TENNESSEE

CITY           SKY/WX    TMP DP  RH WIND       PRES   REMARKS
KNOXVILLE      LGT RAIN  66  61  84 S7        30.04S
OAK RIDGE      CLOUDY    66  64  93 CALM      30.06F
GATLINBURG     PTCLDY    66  64  94 SW3       30.05S
MORRISTOWN     CLEAR     66  63  88 CALM      30.06F
$$

TNZ083-085-099-020600-
SOUTHEAST TENNESSEE

CITY           SKY/WX    TMP DP  RH WIND       PRES   REMARKS
CHATTANOOGA    CLOUDY    69  63  81 CALM      30.05S
$$

SKY/WX REPORTED AS FAIR MEANS FEW OR NO CLOUDS BELOW
12 THOUSAND FEET.



USA.gov is the U.S. government's official web portal to all federal, state and local government web resources and services.